Nashville, TN

8:30 PM CST on December 09, 2019 (GMT -0600)
Nashville International

Weather History for KBNA - October, 2019

Change the Weather History Date:

Tuesday, October 22, 2019

  Actual Average Record
Temperature  
Mean Temperature 58 °F 58 °F  
Max Temperature 66 °F 70 °F 88 °F (1947)
Min Temperature 48 °F 47 °F 26 °F (1987)
Degree Days  
Heating Degree Days 8    
Month to date heating degree days 75  
Since 1 July heating degree days 75  
Cooling Degree Days 0    
Month to date cooling degree days 107  
Year to date cooling degree days 2278  
Growing Degree Days 8 (Base 50)    
Moisture  
Dew Point 42 °F    
Average Humidity 56    
Maximum Humidity 89    
Minimum Humidity 32    
Precipitation  
Precipitation 0.00 in 0.09 in 2.22 in (1890)
Month to date precipitation 3.18 2.11  
Year to date precipitation 50.60 37.77  
Sea Level Pressure  
Sea Level Pressure 29.97 in    
Wind  
Wind Speed 6 mph ()    
Max Wind Speed 17 mph    
Max Gust Speed 23 mph    
Visibility 10.0 miles    
Events      
T = Trace of Precipitation, MM = Missing Value Source: Averaged Metar Reports

Daily Weather History Graph

Daily Weather History Graph

Search for Another Location

Airport or City:

Astronomy

Oct. 22, 2019 Rise Set
Actual Time 6:59 AM CDT 6:02 PM CDT
Civil Twilight 6:33 AM CDT 6:28 PM CDT
Nautical Twilight 6:03 AM CDT 6:58 PM CDT
Astronomical Twilight 5:33 AM CDT 7:27 PM CDT
Moon 12:24 AM CDT (10/22) 2:57 PM CDT (10/22)
Length of Visible Light 11h 54m
Length of Day
11h 02m
Last Quarter, 37% of the Moon is Illuminated
Oct 22
Last Quarter
Oct 27
New
Nov 4
First Quarter
Nov 12
Full
Nov 19
Last Quarter

Hourly Weather History & Observations

Time (CDT) Temp. Dew Point Humidity Pressure Visibility Wind Dir Wind Speed Gust Speed Precip Events Conditions
12:53 AM 62.1 °F 57.0 °F 84% 29.87 in 10.0 mi WSW 3.5 mph - N/A   Overcast
1:53 AM 61.0 °F 55.0 °F 81% 29.87 in 10.0 mi West 8.1 mph - N/A   Mostly Cloudy
2:53 AM 61.0 °F 55.0 °F 81% 29.89 in 10.0 mi West 4.6 mph - N/A   Overcast
4:53 AM 54.0 °F 50.0 °F 86% 29.91 in 10.0 mi SSW 4.6 mph - N/A   Clear
5:53 AM 55.0 °F 50.0 °F 83% 29.91 in 10.0 mi SW 4.6 mph - N/A   Clear
6:53 AM 54.0 °F 48.0 °F 80% 29.93 in 10.0 mi SSW 4.6 mph - N/A   Partly Cloudy
8:53 AM 57.0 °F 43.0 °F 59% 29.97 in 10.0 mi West 10.4 mph - N/A   Clear
9:53 AM 60.1 °F 43.0 °F 53% 29.97 in 10.0 mi West 9.2 mph 19.6 mph N/A   Partly Cloudy
10:53 AM 62.1 °F 41.0 °F 46% 29.98 in 10.0 mi West 8.1 mph 20.7 mph N/A   Partly Cloudy
11:53 AM 63.0 °F 39.0 °F 41% 29.99 in 10.0 mi WSW 11.5 mph 18.4 mph N/A   Partly Cloudy
12:53 PM 64.9 °F 37.9 °F 37% 29.97 in 10.0 mi West 15.0 mph 21.9 mph N/A   Partly Cloudy
1:53 PM 66.9 °F 37.9 °F 34% 29.95 in 10.0 mi West 6.9 mph 18.4 mph N/A   Partly Cloudy
2:53 PM 66.9 °F 37.9 °F 34% 29.96 in 10.0 mi WSW 8.1 mph 20.7 mph N/A   Partly Cloudy
3:53 PM 66.0 °F 36.0 °F 33% 29.96 in 10.0 mi West 13.8 mph 20.7 mph N/A   Partly Cloudy
4:53 PM 64.9 °F 37.0 °F 36% 29.96 in 10.0 mi West 12.7 mph - N/A   Scattered Clouds
5:53 PM 62.1 °F 36.0 °F 38% 29.98 in 10.0 mi West 9.2 mph 16.1 mph N/A   Partly Cloudy
6:53 PM 59.0 °F 37.0 °F 44% 30.01 in 10.0 mi WSW 6.9 mph - N/A   Partly Cloudy
7:53 PM 57.0 °F 36.0 °F 45% 30.05 in 10.0 mi West 5.8 mph - N/A   Clear
8:53 PM 54.0 °F 37.0 °F 53% 30.06 in 10.0 mi SW 3.5 mph - N/A   Clear
9:53 PM 51.1 °F 37.0 °F 59% 30.08 in 10.0 mi SSW 4.6 mph - N/A   Clear
10:53 PM 48.9 °F 37.0 °F 64% 30.08 in 10.0 mi SSW 6.9 mph - N/A   Clear
11:53 PM 50.0 °F 36.0 °F 59% 30.08 in 10.0 mi SSW 4.6 mph - N/A   Clear